SCP
0 0 -0 0 0 0 0 0 0 0 0 0 0 0 0 0 0 0 0 0 0 0 0 0 1 0 0 0 0 0 -0 -0
0 0 0 0 0 0 0 0 0 0 0 0 0 0 0 -0 1 2 1 0 1 0 0 0 0 0 0 0 0 0 -0 0
0 0 0 0 0 0 0 0 0 0 0 0 0 0 0 0 0 1 1 0 1 0 1 1 0 0 0 0 0 0 0 0
0 0 0 0 0 0 0 0 0 0 -0 0 0 0 0 0 0 0 0 1 1 1 1 1 1 1 0 0 0 1 1 0
0 0 0 0 0 0 0 0 0 0 0 0 0 0 0 0 0 0 0 1 1 1 2 2 1 1 1 1 1 1 1 1
0 0 0 0 0 0 0 0 0 0 -0 0 0 0 0 0 1 0 0 1 1 1 1 2 2 2 2 1 1 1 0 0
0 0 0 0 0 0 0 0 0 0 0 0 0 0 0 0 0 1 1 1 2 2 2 1 1 2 2 2 1 1 0 1
0 0 0 0 0 0 0 -0 0 0 -0 1 0 0 0 1 1 0 1 1 0 1 1 2 2 1 0 1 1 1 1 1
0 0 0 0 0 0 0 0 0 0 0 0 0 0 0 1 1 1 1 1 1 0 0 1 0 0 0 1 1 2 1 1
0 0 0 0 0 0 0 0 1 0 1 0 0 0 0 0 0 0 1 1 1 1 1 0 0 0 0 0 0 0 1 1
0 0 0 0 0 0 0 0 0 0 0 0 0 0 0 0 0 0 0 0 0 0 0 0 0 0 0 0 0 0 0 1
0 0 0 0 0 0 0 0 -0 0 0 0 0 0 0 0 0 0 0 0 0 0 0 0 0 0 0 0 0 0 0 0
0 0 0 0 0 0 0 0 0 0 0 0 0 0 0 0 0 0 -0 0 0 0 0 0 0 0 0 0 0 0 0 0
0 0 0 0 0 0 0 0 0 0 0 0 0 0 0 0 0 0 0 0 0 0 0 0 0 0 0 0 0 0 0 0
0 0 0 0 0 0 0 0 0 0 0 0 0 0 0 0 0 0 0 0 0 0 0 0 0 0 0 -0 0 0 0 0
0 0 0 0 0 0 0 0 0 0 0 0 0 0 0 0 0 0 0 0 0 0 0 0 0 0 0 0 0 0 0 0
0 -0 -0 0 0 0 0 0 0 0 0 0 0 0 0 0 0 0 0 0 0 0 0 0 0 0 0 0 -0 -0 -0 -0
0 -0 -0 0 0 0 0 0 0 0 0 0 0 0 0 0 0 0 0 0 -0 -0 0 0 0 0 0 0 0 0 0 0
0 -0 -0 0 0 0 0 -0 -0 -0 -0 -0 -0 -0 -0 -0 -0 0 0 0 0 0 0 0 0 0 0 0 0 0 0 0
Wind_Speed_500mb
17 6 17 6 8 20 6 7 11 10 13 20 13 23 12 21 38 42 44 39 44 40 51 60 73 82 87 89 81 78 72 65
5 9 11 8 13 8 8 12 26 26 31 21 33 29 32 29 35 34 32 16 25 36 42 50 59 67 74 77 75 71 66 60
6 6 11 7 9 5 9 3 23 28 27 8 17 20 24 22 27 28 18 9 21 29 34 41 49 56 61 64 67 61 60 56
13 7 11 2 7 4 12 12 17 16 33 1 12 12 17 22 23 18 11 3 12 25 31 37 44 48 50 53 55 56 58 55
12 9 6 6 10 12 15 11 30 24 27 8 12 14 20 22 22 18 12 11 15 19 15 13 14 26 45 50 57 60 61 56
13 11 8 10 13 13 15 15 24 25 28 8 15 15 17 22 22 20 19 17 19 24 26 19 19 22 22 30 52 62 61 58
19 26 18 14 13 2 6 19 24 31 20 4 8 12 16 16 21 26 21 20 17 20 19 35 25 30 34 36 21 28 55 58
28 15 17 23 2 11 11 11 13 24 11 5 13 7 13 23 26 28 25 21 23 22 20 30 34 27 34 31 24 20 32 32
23 10 23 15 4 3 7 7 12 14 10 9 11 12 23 26 24 29 28 24 27 24 11 18 17 8 19 18 17 17 34 42
16 16 15 2 1 6 9 11 11 12 5 5 9 6 5 8 12 17 22 22 25 12 6 7 15 15 13 25 34 22 30 51
11 14 6 8 1 4 6 11 8 12 9 13 5 11 11 12 4 7 20 19 24 13 3 4 21 36 39 24 49 48 74 71
4 8 9 8 9 18 18 13 20 21 12 10 9 3 7 13 9 16 21 26 23 26 23 14 13 16 3 7 41 51 74 54
17 9 3 12 16 7 10 3 9 15 18 14 2 7 4 10 20 25 22 19 18 28 24 32 30 21 24 33 27 27 19 11
4 9 9 17 3 5 9 10 13 15 14 12 2 16 17 14 20 28 26 20 20 24 31 25 20 21 27 19 20 19 19 7
6 6 2 14 8 8 10 17 15 15 12 13 22 21 19 16 16 22 24 26 27 28 27 29 29 25 19 13 6 10 8 10
8 2 8 7 9 4 9 14 14 7 10 12 20 20 16 15 14 19 20 21 24 29 31 35 34 33 31 25 21 18 17 20
9 5 10 7 5 0 10 9 21 23 20 23 21 18 17 15 18 19 24 28 26 29 33 32 31 29 26 21 18 17 19 22
5 0 1 6 7 11 21 19 19 27 30 28 21 29 9 13 16 20 22 24 28 26 31 29 25 20 17 15 12 12 14 19
4 2 10 2 5 4 10 13 19 23 25 32 33 30 14 14 16 18 20 22 21 21 21 18 15 14 15 14 12 10 10 11
Wind_Direction_500mb
233 179 189 136 166 220 85 339 267 272 268 273 250 286 310 318 301 286 284 268 248 230 209 209 206 207 213 219 217 218 219 223
305 190 151 230 160 234 186 194 255 275 275 274 294 315 334 343 320 320 313 259 196 191 193 191 193 203 209 217 217 215 215 217
217 211 301 191 202 204 206 281 276 263 272 239 289 320 320 335 323 317 313 259 165 164 170 175 183 193 203 208 213 210 210 209
294 326 344 347 24 324 237 201 221 263 259 163 325 1 1 351 345 326 310 142 137 145 160 174 182 188 197 202 203 200 201 201
300 157 61 11 360 354 321 256 226 233 262 123 28 50 29 11 5 4 359 65 92 109 116 142 176 191 192 192 191 189 194 198
283 282 305 298 337 18 359 290 252 233 256 180 19 11 4 10 17 33 45 51 83 105 138 146 166 185 201 212 192 185 189 204
284 262 268 275 266 179 302 291 270 270 228 58 38 41 354 16 30 42 56 81 91 106 122 149 155 172 182 181 238 216 208 201
283 260 271 280 278 271 324 360 329 312 245 62 80 41 61 56 49 49 61 74 78 115 123 132 155 172 172 186 229 244 225 244
278 287 306 256 274 214 262 353 356 290 8 149 117 119 73 66 61 64 59 72 96 89 81 87 131 104 95 104 193 242 262 247
268 289 264 73 126 270 308 19 6 298 244 203 154 138 104 45 37 44 42 34 51 66 179 191 165 191 235 243 229 226 265 253
250 252 308 211 229 6 27 82 43 310 182 194 250 332 59 10 48 72 45 42 42 47 44 230 230 241 266 263 289 292 251 238
282 240 259 63 34 64 74 292 10 330 282 270 321 65 67 26 54 91 93 76 68 68 79 71 15 331 262 25 358 221 209 208
237 266 115 14 345 104 170 70 281 261 256 272 337 64 71 91 80 85 79 96 94 76 83 89 72 82 82 39 17 23 83 162
272 236 229 358 146 253 22 314 300 293 284 295 179 110 100 94 89 92 101 120 96 88 87 93 78 82 70 31 342 18 28 38
265 341 332 296 303 314 314 301 319 321 353 94 107 93 95 103 98 105 105 104 97 91 97 94 94 101 120 129 107 62 79 107
303 113 310 336 357 143 75 14 354 23 69 80 102 94 95 91 88 103 105 104 99 103 99 93 88 89 91 93 92 86 82 76
262 276 306 10 18 118 334 48 79 96 87 93 95 67 69 75 80 87 100 113 120 110 103 94 92 91 96 95 94 84 74 66
303 156 212 113 60 46 58 103 109 110 108 101 90 69 12 77 82 97 102 105 97 103 102 101 89 81 74 68 58 53 43 34
328 247 194 334 152 63 78 93 116 107 116 108 103 100 141 106 91 95 99 99 107 107 96 84 63 27 19 24 17 9 6 2
Wind_Speed_850mb
17 6 17 6 8 20 6 7 11 10 13 20 13 23 12 21 38 42 44 39 44 40 51 60 73 82 87 89 81 78 72 65
5 9 11 8 13 8 8 12 26 26 31 21 33 29 32 29 35 34 32 16 25 36 42 50 59 67 74 77 75 71 66 60
6 6 11 7 9 5 9 3 23 28 27 8 17 20 24 22 27 28 18 9 21 29 34 41 49 56 61 64 67 61 60 56
13 7 11 2 7 4 12 12 17 16 33 1 12 12 17 22 23 18 11 3 12 25 31 37 44 48 50 53 55 56 58 55
12 9 6 6 10 12 15 11 30 24 27 8 12 14 20 22 22 18 12 11 15 19 15 13 14 26 45 50 57 60 61 56
13 11 8 10 13 13 15 15 24 25 28 8 15 15 17 22 22 20 19 17 19 24 26 19 19 22 22 30 52 62 61 58
19 26 18 14 13 2 6 19 24 31 20 4 8 12 16 16 21 26 21 20 17 20 19 35 25 30 34 36 21 28 55 58
28 15 17 23 2 11 11 11 13 24 11 5 13 7 13 23 26 28 25 21 23 22 20 30 34 27 34 31 24 20 32 32
23 10 23 15 4 3 7 7 12 14 10 9 11 12 23 26 24 29 28 24 27 24 11 18 17 8 19 18 17 17 34 42
16 16 15 2 1 6 9 11 11 12 5 5 9 6 5 8 12 17 22 22 25 12 6 7 15 15 13 25 34 22 30 51
11 14 6 8 1 4 6 11 8 12 9 13 5 11 11 12 4 7 20 19 24 13 3 4 21 36 39 24 49 48 74 71
4 8 9 8 9 18 18 13 20 21 12 10 9 3 7 13 9 16 21 26 23 26 23 14 13 16 3 7 41 51 74 54
17 9 3 12 16 7 10 3 9 15 18 14 2 7 4 10 20 25 22 19 18 28 24 32 30 21 24 33 27 27 19 11
4 9 9 17 3 5 9 10 13 15 14 12 2 16 17 14 20 28 26 20 20 24 31 25 20 21 27 19 20 19 19 7
6 6 2 14 8 8 10 17 15 15 12 13 22 21 19 16 16 22 24 26 27 28 27 29 29 25 19 13 6 10 8 10
8 2 8 7 9 4 9 14 14 7 10 12 20 20 16 15 14 19 20 21 24 29 31 35 34 33 31 25 21 18 17 20
9 5 10 7 5 0 10 9 21 23 20 23 21 18 17 15 18 19 24 28 26 29 33 32 31 29 26 21 18 17 19 22
5 0 1 6 7 11 21 19 19 27 30 28 21 29 9 13 16 20 22 24 28 26 31 29 25 20 17 15 12 12 14 19
4 2 10 2 5 4 10 13 19 23 25 32 33 30 14 14 16 18 20 22 21 21 21 18 15 14 15 14 12 10 10 11
Wind_Direction_850mb
233 179 189 136 166 220 85 339 267 272 268 273 250 286 310 318 301 286 284 268 248 230 209 209 206 207 213 219 217 218 219 223
305 190 151 230 160 234 186 194 255 275 275 274 294 315 334 343 320 320 313 259 196 191 193 191 193 203 209 217 217 215 215 217
217 211 301 191 202 204 206 281 276 263 272 239 289 320 320 335 323 317 313 259 165 164 170 175 183 193 203 208 213 210 210 209
294 326 344 347 24 324 237 201 221 263 259 163 325 1 1 351 345 326 310 142 137 145 160 174 182 188 197 202 203 200 201 201
300 157 61 11 360 354 321 256 226 233 262 123 28 50 29 11 5 4 359 65 92 109 116 142 176 191 192 192 191 189 194 198
283 282 305 298 337 18 359 290 252 233 256 180 19 11 4 10 17 33 45 51 83 105 138 146 166 185 201 212 192 185 189 204
284 262 268 275 266 179 302 291 270 270 228 58 38 41 354 16 30 42 56 81 91 106 122 149 155 172 182 181 238 216 208 201
283 260 271 280 278 271 324 360 329 312 245 62 80 41 61 56 49 49 61 74 78 115 123 132 155 172 172 186 229 244 225 244
278 287 306 256 274 214 262 353 356 290 8 149 117 119 73 66 61 64 59 72 96 89 81 87 131 104 95 104 193 242 262 247
268 289 264 73 126 270 308 19 6 298 244 203 154 138 104 45 37 44 42 34 51 66 179 191 165 191 235 243 229 226 265 253
250 252 308 211 229 6 27 82 43 310 182 194 250 332 59 10 48 72 45 42 42 47 44 230 230 241 266 263 289 292 251 238
282 240 259 63 34 64 74 292 10 330 282 270 321 65 67 26 54 91 93 76 68 68 79 71 15 331 262 25 358 221 209 208
237 266 115 14 345 104 170 70 281 261 256 272 337 64 71 91 80 85 79 96 94 76 83 89 72 82 82 39 17 23 83 162
272 236 229 358 146 253 22 314 300 293 284 295 179 110 100 94 89 92 101 120 96 88 87 93 78 82 70 31 342 18 28 38
265 341 332 296 303 314 314 301 319 321 353 94 107 93 95 103 98 105 105 104 97 91 97 94 94 101 120 129 107 62 79 107
303 113 310 336 357 143 75 14 354 23 69 80 102 94 95 91 88 103 105 104 99 103 99 93 88 89 91 93 92 86 82 76
262 276 306 10 18 118 334 48 79 96 87 93 95 67 69 75 80 87 100 113 120 110 103 94 92 91 96 95 94 84 74 66
303 156 212 113 60 46 58 103 109 110 108 101 90 69 12 77 82 97 102 105 97 103 102 101 89 81 74 68 58 53 43 34
328 247 194 334 152 63 78 93 116 107 116 108 103 100 141 106 91 95 99 99 107 107 96 84 63 27 19 24 17 9 6 2